Location: Tamazert
(32.6352°N, 5.2072°W)
Time: 11:18:35
(UTC+00:00)

Tiros 1 despin weight - Pass Details

Date: 10 October 2022
Orbit: 590 x 637 km, 48.2° (Epoch: 25 November)

Event Time Altitude Azimuth Distance (km) Brightness Sun altitude
Rises 20:21:32 0° 303° (WNW) 2,882 ? -31.7°
Reaches altitude 10° 20:23:54 10° 297° (WNW) 1,983 ? -32.2°
Enters shadow 20:26:19 28° 279° (W) 1,166 ? -32.7°
Maximum altitude 20:28:15 45° 225° (SW) 852 - -33.1°
Drops below altitude 10° 20:32:39 10° 152° (SSE) 1,999 - -34.0°
Sets 20:35:02 0° 146° (SSE) 2,909 - -34.5°
